Regional Weather Roundup
Issued by NWS

Home | Current Version | Previous Version | Graphics & Text | Print | Product List | Glossary Off
Versions: 1 2 3 4 5 6 7 8 9 10 11 12 13 14 15 16 17 18 19 20 21 22 23 24 25 26 27 28 29 30 31 32 33 34 35 36 37 38 39 40 41 42 43 44 45 46 47 48

000
ASUS43 KDMX 230807
RWRIA

WEATHER ROUNDUP FOR IOWA
NATIONAL WEATHER SERVICE DES MOINES IA
300 AM CDT TUE SEP 23 2014

NOTE: "FAIR" INDICATES FEW OR NO CLOUDS BELOW 12,000 FEET WITH NO
SIGNIFICANT WEATHER AND/OR OBSTRUCTIONS TO VISIBILITY.

* - THESE STATIONS ARE NOT NWS STATIONS...THUS NOT UNDER NWS
QUALITY CONTROL.  THEY ALSO DO NOT REPORT WEATHER SUCH
AS PRECIPITATION OR FOG.

IAZ001>003-012>014-020>022-031>034-043>046-230900-
   NORTHWEST IOWA

CITY           SKY/WX    TMP DP  RH WIND       PRES   REMARKS
CARROLL *      CLEAR     50  48  93 SE5       30.19F
CHEROKEE *     PTCLDY    54  50  87 SE3       30.16F
DENISON *      CLEAR     57  52  82 S7        30.16F
LE MARS *        N/A     55  52  88 S5        30.14F
ORANGE CITY *  CLEAR     55  46  71 SE5       30.14F
SHELDON *      CLEAR     52  50  93 SE8       30.14F
SIOUX CITY     CLOUDY    57  53  86 SE7       30.14F
SPENCER        CLEAR     50  46  86 SE7       30.17F
STORM LAKE *   CLEAR     52  52 100 S8        30.18F
$$

IAZ055>058-069>071-079>083-090>094-230900-
   SOUTHWEST IOWA

CITY           SKY/WX    TMP DP  RH WIND       PRES   REMARKS
ATLANTIC *     PTCLDY    54  52  94 CALM      30.19F FOG
AUDUBON *      CLEAR     46  43  87 CALM      30.20F
CLARINDA *     CLEAR     52  52 100 CALM      30.21F
COUNCIL BLFS * CLEAR     57  55  94 SE7       30.17F
CRESTON *      CLEAR     52  50  93 SE6       30.22F
HARLAN  *      CLEAR     54  52  94 CALM      30.22F
LAMONI         CLEAR     56  50  80 SE7       30.23S
RED OAK *      CLOUDY    55  52  88 CALM      30.19F
SHENANDOAH *   CLEAR     59  54  82 SE7       30.19F
$$

IAZ047>049-059>061-072>074-084-230900-
   CENTRAL IOWA

CITY           SKY/WX    TMP DP  RH WIND       PRES   REMARKS
AMES           CLEAR     47  47 100 CALM      30.23S
ANKENY *       CLEAR     50  48  93 CALM      30.23S
CHARITON *     MOCLDY    52  48  87 SE5       30.23S FOG
DES MOINES     CLEAR     54  50  86 SE7       30.22F
GRINNELL*      PTCLDY    50  46  87 SE5       30.24F
KNOXVILLE *    CLEAR     54  50  87 S6        30.22F
MARSHALLTOWN   PTCLDY    48  45  89 E3        30.23S
PELLA *        PTCLDY    50  48  93 SE3       30.25S
PERRY *          N/A     50  50 100 S5        30.21F
$$

IAZ004>006-015-016-023>025-035-036-230900-
   NORTH CENTRAL IOWA

CITY           SKY/WX    TMP DP  RH WIND       PRES   REMARKS
ALGONA *       CLEAR     52  48  87 CALM      30.20S
CLARION *        N/A     52  50  93 S6        30.21F
ESTHERVILLE    CLEAR     46  44  93 S5        30.18S
FORT DODGE *   CLEAR     54  48  82 CALM      30.21S
MASON CITY     CLEAR     47  45  93 S6        30.23S
FOREST CITY *  CLEAR     43  43 100 CALM      30.21F
IOWA FALLS *     N/A     50  46  87 CALM      30.24S
$$

IAZ007>011-017>019-026>030-037>042-050>054-066-230900-
   NORTHEAST IOWA

CITY           SKY/WX    TMP DP  RH WIND       PRES   REMARKS
CEDAR RAPIDS   CLEAR     47  46  97 SE5       30.24F
CHARLES CITY * CLEAR     50  48  93 S7        30.24S
CLINTON *      CLEAR     45  41  87 CALM      30.29S
DECORAH *      CLEAR     52  46  82 CALM      30.23F
DUBUQUE        CLEAR     47  44  90 S5        30.26S
MONTICELLO *   CLEAR     43  43 100 CALM      30.25F
OELWEIN *      CLEAR     48  46  93 SE5       30.25S
WATERLOO       CLEAR     46  43  89 CALM      30.23S
$$

IAZ064-065-067-068-078-230900-
   EAST CENTRAL IOWA

CITY           SKY/WX    TMP DP  RH WIND       PRES   REMARKS
DAVENPORT      CLEAR     46  42  86 CALM      30.27S
IOWA CITY      CLEAR     47  46  97 CALM      30.26S
MT. PLEASANT * PTCLDY    48  45  87 CALM      30.26S
MUSCATINE *    CLEAR     46  45  93 CALM      30.27S
QUAD CITIES    CLEAR     46  43  89 CALM      30.26F
$$

IAZ062-063-075>077-085>089-095>099-230900-
   SOUTHEAST IOWA

CITY           SKY/WX    TMP DP  RH WIND       PRES   REMARKS
BURLINGTON     CLEAR     49  48  97 CALM      30.26S
FAIRFIELD *    CLEAR     50  46  87 S5        30.25F
FORT MADISON * CLEAR     50  46  87 CALM      30.27S
KEOKUK *       CLEAR     52  50  93 CALM      30.26S
OSKALOOSA *      N/A     50  48  93 S5        30.25S
CENTERVILLE *  CLEAR     48  48 100 SE3       30.26S
OTTUMWA        PTCLDY    51  47  86 S6        30.24F
WASHINGTON *   CLEAR     45  45 100 S3        30.26S
$$

ABBREVIATIONS USED IN REMARKS
   TC - TEMPERATURES IN CELSIUS
  WCI - WIND CHILL INDEX
   HX - HEAT INDEX
  VSB - VISIBILITY
$$



USA.gov is the U.S. government's official web portal to all federal, state and local government web resources and services.